SL-14 R/B

Satellite information

Favourite Embed

Satellite Type and Status

ROCKET BODYIN ORBIT

Key statistics

Satellite SL-14 R/B at a glance.

Uptime

15635

Days in orbit

Revolutions

≈ 14.9

Per day

Orbit

LEO

Low Earth Orbit

Inclination

82.6

Latest

Satellite identification and parameters

Extended collection of information and parameters for SL-14 R/B.

Object identification

Identified? True

Debris? False

Object name: SL-14 R/B

International designator: 1982-092B

Object number (NORAD): 13553

Object ID (CCSDS): 13553

Country: COMMONWEALTH OF INDEPENDENT STATES (CIS)

Current information (Y/N): Y

RCS size: LARGE

Orbital parameters

Period: 96.883 minutes

Inclination: 82.5676 deg

SMA: 6987.532 km

Apoapsis: 624.43 km

Periapsis: 594.364 km

RAAN: 11.5276 deg

Eccentricy: 0.0021514

Argument of periapsis: 40.8688 deg

Mean anomaly: 27.633 deg

Mean motion: 14.86336034 rev/day

Mean motion (dot): 0.00000382 rev/day2

B* drag term: 0.000040375 1/REarth

Two-line elements (TLE)

Creation date: July 6, 2025, 6:05 p.m.

Reference frame: TEME

Reference center: EARTH

Epoch: July 6, 2025, 2:40 p.m. UTC

TLE line 0: 0 SL-14 R/B

TLE line 1: 1 13553U 82092B 25187.61173123 .00000382 00000-0 40375-4 0 9991

TLE line 2: 2 13553 82.5676 11.5276 0021514 40.8688 27.6330 14.86336034292374

Live tracking on map

Real-time ground track for satellite SL-14 R/B.

In-orbit conjunctions

A list of the most updated potential collisions computed for object SL-14 R/B.

Target Orbit TCA Probability of collision Miss distance Type
CZ-6A DEB SSO 2025-05-21 08:43:06 0.0002214424 416.0 (m) DEBRIS
FENGYUN 1C DEB SSO 2025-03-09 04:24:06 0.0001480575 343.0 (m) DEBRIS
CZ-6A DEB LEO 2024-11-11 09:53:39 0.00105137 606.0 (m) DEBRIS
DELTA 1 DEB (YO) LEO 2024-10-13 13:50:00 0.0001438539 141.0 (m) DEBRIS
SL-24 DEB SSO 2024-07-23 10:48:42 0.0001198682 112.0 (m) DEBRIS

Associated space launch

Tselina-D satellites provided detailed observation of radio sources detected by the smaller Tselina-O satellites as part of the Tselina ELINT system.

SL-14 R/B was lifted into orbit during the mission ‘Tsiklon-3 | Tselina-D 38’, on board a Tsiklon-3 space rocket.

The launch took place on Sept. 16, 1982, 4:55 a.m. from 32/2.

For more information about the launch, click the button.

Launch to space Tsiklon-3 | Tselina-D 38
Tsiklon-3 | Tselina-D 38

Agency: N/A

Status: Launch Successful

Launch date: Sept. 16, 1982, 4:55 a.m. UTC

Rocket: Tsiklon-3

Launch pad: 32/2

Location: Plesetsk Cosmodrome, Russian Federation

...

Latest news about this satellite

There are no fresh news available about this satellite. Check back as we update our databases every day.


Newsletter sign-up

Weekly statistics, charts and insights to help you stay on top of the space industry.